FW5821 Weather Reports


time (UTC)temp
C
wind
direction
speed
KPH
gust
KPH
rain 1hr
cm
rain 24hr
cm
rain mn
cm
humidity
%
barometer
mb
20260507013159 9 7 0.0 0.0 0.00 0.00 0.00 77 1012.7
20260507012156 9 6 0.0 0.0 0.00 0.00 0.00 77 1012.6
20260507011200 9 358 0.0 0.0 0.00 0.00 0.00 77 1012.5
20260507010158 9 3 0.0 0.0 0.00 0.00 0.00 77 1012.4
20260507005159 9 357 0.0 0.0 0.00 0.00 0.00 76 1012.4
20260507004157 10 6 0.0 0.0 0.00 0.00 0.00 76 1012.3
20260507003158 10 11 0.0 0.0 0.00 0.00 0.00 76 1012.3
20260507002158 10 10 0.0 0.0 0.00 0.00 0.00 76 1012.3
20260507001159 10 17 0.0 0.0 0.00 0.00 0.00 76 1012.2
20260507000157 10 0 0.0 0.0 0.00 0.00 0.00 76 1012.1
20260506235158 10 0 0.0 0.0 0.00 0.00 0.00 76 1012.0
20260506234156 10 25 0.0 0.0 0.00 0.00 0.00 76 1012.1
20260506233156 10 41 0.0 0.0 0.00 0.00 0.00 76 1012.0
20260506232156 10 42 0.0 0.0 0.00 0.00 0.00 75 1011.9
20260506230155 10 4 0.0 0.0 0.00 0.00 0.00 75 1011.9
20260506225155 10 1 0.0 0.0 0.00 0.00 0.00 75 1012.0
20260506224155 10 1 0.0 0.0 0.00 0.00 0.00 75 1011.9
20260506222155 11 0 0.0 0.0 0.00 0.00 0.00 75 1011.8
20260506221156 10 10 0.0 0.0 0.00 0.00 0.00 75 1011.7
20260506220154 10 0 0.0 0.0 0.00 0.00 0.00 76 1011.8
20260506215153 10 6 0.0 0.0 0.00 0.00 0.00 76 1011.7
20260506214155 10 4 0.0 0.0 0.00 0.00 0.00 76 1011.7
20260506213153 11 4 0.0 0.0 0.00 0.00 0.00 76 1011.6
20260506212156 11 4 0.0 0.0 0.00 0.00 0.00 76 1011.5
20260506210156 11 4 0.0 0.0 0.00 0.00 0.00 76 1011.4
20260506205154 11 4 0.0 0.0 0.00 0.00 0.00 75 1011.3
20260506204154 11 4 0.0 0.0 0.00 0.00 0.00 75 1011.3
20260506203152 11 4 0.0 0.0 0.00 0.00 0.00 75 1011.2
20260506201151 11 4 0.0 0.0 0.00 0.00 0.00 74 1011.1
20260506200150 11 3 0.0 0.0 0.00 0.00 0.00 74 1011.1
20260506195152 11 7 0.0 0.0 0.00 0.00 0.00 74 1011.1
20260506194150 11 28 0.0 0.0 0.00 0.00 0.00 74 1011.0
20260506193150 11 28 0.0 0.0 0.00 0.00 0.00 73 1010.9
20260506192150 11 28 0.0 0.0 0.00 0.00 0.00 73 1010.7
20260506190149 11 28 0.0 0.0 0.00 0.00 0.00 72 1010.4
20260506185151 11 31 0.0 0.0 0.00 0.00 0.00 72 1010.3
20260506183150 11 38 0.0 0.0 0.00 0.00 0.00 71 1010.3
20260506182148 11 51 0.0 0.0 0.00 0.00 0.00 72 1010.1
20260506181148 11 49 0.0 0.0 0.00 0.00 0.00 71 1010.0
20260506180148 11 42 0.0 0.0 0.00 0.00 0.00 70 1009.9
20260506175151 11 39 0.0 0.0 0.00 0.00 0.00 70 1009.8
20260506174151 11 42 0.0 0.0 0.00 0.00 0.00 69 1009.7
20260506173150 11 44 0.0 0.0 0.00 0.00 0.00 69 1009.7
20260506172148 12 27 0.0 0.0 0.00 0.00 0.00 68 1009.4
20260506165148 12 34 0.0 0.0 0.00 0.00 0.00 69 1009.3
20260506164147 11 55 0.0 0.0 0.00 0.00 0.00 70 1009.4
20260506163147 11 71 0.0 0.0 0.00 0.00 0.00 71 1009.4
20260506160146 12 79 0.0 0.0 0.00 0.00 0.00 70 1009.3
20260506155148 11 51 0.0 0.0 0.00 0.00 0.00 71 1009.3
20260506154147 11 48 0.0 0.0 0.00 0.00 0.00 74 1009.2
20260506153149 11 69 0.0 0.0 0.00 0.00 0.00 74 1009.3
20260506152145 11 47 0.0 0.0 0.00 0.00 0.00 74 1009.3
20260506151146 11 54 0.0 0.0 0.00 0.00 0.00 75 1009.2
20260506150143 11 32 0.0 0.0 0.00 0.00 0.00 75 1009.3
20260506145145 11 42 0.0 0.0 0.00 0.00 0.00 75 1009.1
20260506144144 11 55 0.0 0.0 0.00 0.00 0.00 75 1009.1
20260506143146 11 55 0.0 0.0 0.00 0.00 0.00 74 1009.1
20260506142146 11 55 0.0 0.0 0.00 0.00 0.00 74 1009.1
20260506141144 11 54 0.0 0.0 0.00 0.00 0.00 73 1009.0
20260506140142 12 61 0.0 0.0 0.00 0.00 0.00 72 1009.0
20260506135143 12 45 0.0 0.0 0.00 0.00 0.00 70 1008.9
20260506134141 12 48 0.0 0.0 0.00 0.00 0.00 69 1008.8
20260506133141 12 31 0.0 0.0 0.00 0.00 0.00 69 1008.7
20260506131142 12 37 0.0 0.0 0.00 0.00 0.00 68 1008.7
20260506125141 12 18 0.0 0.0 0.00 0.00 0.00 68 1008.6
20260506123142 12 13 0.0 0.0 0.00 0.00 0.00 66 1008.5
20260506122141 12 48 0.0 0.0 0.00 0.00 0.00 64 1008.5
20260506121140 12 52 0.0 0.0 0.00 0.00 0.00 64 1008.4
20260506120139 12 54 0.0 0.0 0.00 0.00 0.00 67 1008.3
20260506114139 12 28 0.0 0.0 0.00 0.00 0.00 61 1008.4
20260506113139 12 25 0.0 0.0 0.00 0.00 0.00 63 1008.3
20260506112140 12 10 0.0 0.0 0.00 0.00 0.00 63 1008.3
20260506111138 12 27 0.0 0.0 0.00 0.00 0.00 63 1008.4
20260506105139 12 37 0.0 0.0 0.00 0.00 0.00 62 1008.1
20260506104140 12 10 0.0 0.0 0.00 0.00 0.00 62 1008.2
20260506103139 12 10 0.0 0.0 0.00 0.00 0.00 65 1008.2
20260506102138 12 45 0.0 0.0 0.00 0.00 0.00 64 1008.1
20260506101137 12 45 0.0 0.0 0.00 0.00 0.00 64 1008.1
20260506100153 12 16 0.0 0.0 0.00 0.00 0.00 62 1007.9
20260506095138 12 39 0.0 0.0 0.00 0.00 0.00 63 1008.0
20260506094137 12 8 0.0 0.0 0.00 0.00 0.00 66 1007.9
20260506093136 12 23 0.0 0.0 0.00 0.00 0.00 67 1008.0
20260506091136 11 41 0.0 0.0 0.00 0.00 0.00 71 1007.8
20260506090139 11 34 0.0 0.0 0.00 0.00 0.00 70 1007.7
20260506085136 11 66 0.0 0.0 0.00 0.00 0.00 71 1007.7
20260506083135 11 42 0.0 0.0 0.00 0.00 0.00 72 1007.6
20260506082135 11 27 0.0 0.0 0.00 0.00 0.00 74 1007.4
20260506081136 11 65 0.0 0.0 0.00 0.00 0.00 74 1007.4
20260506080145 11 7 0.0 0.0 0.00 0.00 0.00 75 1007.3
20260506072141 11 32 0.0 0.0 0.00 0.00 0.00 78 1007.2
20260506071135 11 23 0.0 0.0 0.00 0.00 0.00 79 1007.1
20260506070134 10 23 0.0 0.0 0.00 0.00 0.00 80 1007.1
20260506061136 10 337 0.0 0.0 0.00 0.00 0.00 82 1006.9
20260506060133 10 18 0.0 0.0 0.00 0.00 0.00 82 1006.9
20260506051131 9 0 0.0 0.0 0.00 0.00 0.00 84 1007.0
20260506050130 9 0 0.0 0.0 0.00 0.00 0.00 84 1007.0
20260506045131 9 17 0.0 0.0 0.00 0.00 0.00 85 1007.0
20260506044130 9 31 0.0 0.0 0.00 0.00 0.00 85 1007.0
20260506043132 9 6 0.0 0.0 0.00 0.00 0.00 85 1006.9
20260506042131 9 326 0.0 0.0 0.00 0.00 0.00 85 1006.9
20260506041131 9 0 0.0 0.0 0.00 0.00 0.00 85 1007.0
20260506040133 9 0 0.0 0.0 0.00 0.00 0.00 85 1007.1
20260506035130 9 0 0.0 0.0 0.00 0.00 0.00 85 1007.0
20260506034129 9 16 0.0 0.0 0.00 0.00 0.00 86 1007.1
20260506033129 9 13 0.0 0.0 0.00 0.00 0.00 86 1007.1
20260506032129 9 1 0.0 0.0 0.00 0.00 0.00 86 1007.1
20260506031128 9 17 0.0 0.0 0.00 0.00 0.00 86 1007.1
20260506025130 9 6 0.0 0.0 0.00 0.00 0.00 85 1007.4
20260506024127 9 0 0.0 0.0 0.00 0.00 0.00 85 1007.4
20260506023127 9 6 0.0 0.0 0.00 0.00 0.00 85 1007.4
20260506022128 9 8 0.0 0.0 0.00 0.03 0.00 85 1007.5
20260506020126 9 0 0.0 0.0 0.00 0.03 0.00 84 1007.5
20260506015129 9 14 0.0 0.0 0.00 0.03 0.00 84 1007.6
20260506014125 9 6 0.0 0.0 0.00 0.03 0.00 84 1007.7